GFA255 OBBI-OOMS

Flight info

Callsign GFA255
Flight time 1h 11m
Altitude 33000
Route BHR N697 SODAK P559 AMBOV Q322 LOVEM L223 TARDI N629 MUSUK T511 MCT
Aircraft A20N/M-SDE2E3FGHIRWXY/LB1

Departure

Time 2026-04-27 22:05
Airport Bahrain International Airport (OBBI)

Arrival

Time 2026-04-27 23:17
Airport Muscat International Airport (OOMS)
Time Latitude Longitude Altitude Speed Heading
2026-04-27 21:47 26.26763 50.63135 11 ft 0 kts 212°
2026-04-27 21:52 26.26767 50.63138 11 ft 2 kts 212°
2026-04-27 21:53 26.26780 50.63147 11 ft 2 kts 212°
2026-04-27 21:56 26.26787 50.63152 11 ft 2 kts 212°
2026-04-27 21:56 26.26813 50.63170 11 ft 2 kts 212°
2026-04-27 21:56 26.26826 50.63179 11 ft 2 kts 217°
2026-04-27 21:57 26.26836 50.63191 11 ft 2 kts 240°
2026-04-27 21:57 26.26842 50.63206 11 ft 2 kts 259°
2026-04-27 21:57 26.26843 50.63223 11 ft 2 kts 278°
2026-04-27 21:57 26.26838 50.63238 11 ft 1 kts 297°
2026-04-27 21:58 26.26835 50.63245 11 ft 1 kts 304°
2026-04-27 21:58 26.26834 50.63247 11 ft 0 kts 303°
2026-04-27 22:00 26.26839 50.63237 11 ft 2 kts 302°
2026-04-27 22:00 26.26851 50.63216 11 ft 3 kts 302°
2026-04-27 22:00 26.26869 50.63186 11 ft 5 kts 303°
2026-04-27 22:00 26.26891 50.63148 11 ft 6 kts 302°
2026-04-27 22:01 26.26918 50.63101 11 ft 7 kts 303°
2026-04-27 22:01 26.26949 50.63047 11 ft 8 kts 302°
2026-04-27 22:01 26.26982 50.62985 11 ft 9 kts 294°
2026-04-27 22:01 26.27013 50.62913 11 ft 10 kts 302°
2026-04-27 22:02 26.27057 50.62838 11 ft 11 kts 302°
2026-04-27 22:02 26.27101 50.62758 11 ft 12 kts 301°
2026-04-27 22:02 26.27148 50.62673 11 ft 13 kts 303°
2026-04-27 22:02 26.27201 50.62587 11 ft 13 kts 303°
2026-04-27 22:03 26.27244 50.62529 11 ft 8 kts 336°
2026-04-27 22:03 26.27306 50.62546 11 ft 10 kts 28°
2026-04-27 22:03 26.27371 50.62588 11 ft 11 kts 33°
2026-04-27 22:03 26.27439 50.62639 11 ft 12 kts 34°
2026-04-27 22:04 26.27475 50.62670 11 ft 4 kts 72°
2026-04-27 22:04 26.27469 50.62693 11 ft 0 kts 120°
2026-04-27 22:04 26.27435 50.62755 11 ft 39 kts 122°
2026-04-27 22:04 26.27151 50.63250 11 ft 109 kts 123°
2026-04-27 22:05 26.26629 50.64160 20 ft 165 kts 123°
2026-04-27 22:05 26.25977 50.65263 461 ft 174 kts 123°
2026-04-27 22:05 26.25290 50.66361 1091 ft 176 kts 120°
2026-04-27 22:05 26.24970 50.67571 1843 ft 162 kts 79°
2026-04-27 22:06 26.25508 50.68626 2341 ft 165 kts 33°
2026-04-27 22:06 26.26534 50.69278 2840 ft 176 kts 26°
2026-04-27 22:06 26.27659 50.69909 3359 ft 188 kts 26°
2026-04-27 22:06 26.28837 50.70670 3851 ft 202 kts 29°
2026-04-27 22:07 26.30067 50.71533 4269 ft 222 kts 31°
2026-04-27 22:07 26.31415 50.72523 4728 ft 241 kts 30°
2026-04-27 22:07 26.32867 50.73568 5288 ft 255 kts 30°
2026-04-27 22:07 26.34405 50.74665 5882 ft 268 kts 30°
2026-04-27 22:08 26.35995 50.75832 6391 ft 283 kts 31°
2026-04-27 22:08 26.37664 50.77071 7122 ft 290 kts 31°
2026-04-27 22:08 26.39328 50.78306 7907 ft 293 kts 30°
2026-04-27 22:08 26.41036 50.79568 8683 ft 296 kts 30°
2026-04-27 22:09 26.42752 50.80831 9464 ft 299 kts 29°
2026-04-27 22:09 26.44511 50.82123 10218 ft 303 kts 29°
2026-04-27 22:09 26.46278 50.83419 10783 ft 314 kts 29°
2026-04-27 22:09 26.48174 50.84806 11161 ft 332 kts 29°
2026-04-27 22:10 26.50135 50.86243 11496 ft 350 kts 30°
2026-04-27 22:10 26.51517 50.87257 11704 ft 362 kts 30°
2026-04-27 22:10 26.54413 50.89388 12348 ft 377 kts 30°
2026-04-27 22:10 26.56590 50.91004 13025 ft 382 kts 31°
2026-04-27 22:11 26.58763 50.92775 13718 ft 387 kts 34°
2026-04-27 22:11 26.60896 50.94615 14371 ft 392 kts 34°
2026-04-27 22:11 26.63037 50.96482 15008 ft 396 kts 35°
2026-04-27 22:11 26.65237 50.98400 15650 ft 400 kts 34°
2026-04-27 22:12 26.67446 51.00322 16288 ft 404 kts 35°
2026-04-27 22:12 26.69661 51.02245 16907 ft 408 kts 35°
2026-04-27 22:12 26.71894 51.04186 17507 ft 412 kts 35°
2026-04-27 22:12 26.74095 51.06279 18068 ft 420 kts 45°
2026-04-27 22:13 26.75650 51.09067 18598 ft 430 kts 68°
2026-04-27 22:13 26.76224 51.12355 19164 ft 435 kts 90°
2026-04-27 22:13 26.75743 51.15659 19688 ft 437 kts 110°
2026-04-27 22:13 26.74670 51.18870 20217 ft 441 kts 112°
2026-04-27 22:14 26.73568 51.22045 20785 ft 443 kts 112°
2026-04-27 22:14 26.72472 51.25273 21392 ft 445 kts 111°
2026-04-27 22:14 26.71395 51.28525 21888 ft 450 kts 111°
2026-04-27 22:14 26.70326 51.31816 22323 ft 455 kts 111°
2026-04-27 22:15 26.69253 51.35147 22772 ft 460 kts 110°
2026-04-27 22:15 26.68162 51.38546 23245 ft 464 kts 110°
2026-04-27 22:15 26.67073 51.41942 23680 ft 469 kts 111°
2026-04-27 22:15 26.65966 51.45381 24109 ft 473 kts 111°
2026-04-27 22:16 26.64859 51.48827 24519 ft 477 kts 111°
2026-04-27 22:16 26.63742 51.52305 24896 ft 482 kts 111°
2026-04-27 22:16 26.62600 51.55864 25275 ft 486 kts 111°
2026-04-27 22:16 26.61462 51.59399 25670 ft 490 kts 111°
2026-04-27 22:17 26.60296 51.62990 26060 ft 493 kts 111°
2026-04-27 22:17 26.59119 51.66622 26419 ft 497 kts 112°
2026-04-27 22:17 26.57953 51.70219 26748 ft 501 kts 112°
2026-04-27 22:17 26.56765 51.73896 27095 ft 504 kts 112°
2026-04-27 22:18 26.55572 51.77587 27552 ft 504 kts 112°
2026-04-27 22:18 26.54400 51.81211 28050 ft 503 kts 112°
2026-04-27 22:18 26.53212 51.84884 28502 ft 503 kts 112°
2026-04-27 22:18 26.52011 51.88575 28888 ft 504 kts 112°
2026-04-27 22:19 26.50803 51.92220 29260 ft 505 kts 113°
2026-04-27 22:19 26.49576 51.95895 29599 ft 506 kts 113°
2026-04-27 22:19 26.48354 51.99549 29958 ft 506 kts 113°
2026-04-27 22:19 26.47122 52.03243 30310 ft 507 kts 112°
2026-04-27 22:20 26.45904 52.06898 30628 ft 508 kts 112°
2026-04-27 22:20 26.44665 52.10622 30937 ft 509 kts 112°
2026-04-27 22:20 26.43438 52.14304 31262 ft 509 kts 112°
2026-04-27 22:20 26.42196 52.18012 31529 ft 511 kts 112°
2026-04-27 22:21 26.40955 52.21714 31755 ft 514 kts 112°
2026-04-27 22:21 26.38450 52.29203 31844 ft 517 kts 112°
2026-04-27 22:22 26.35958 52.36632 31850 ft 507 kts 112°
2026-04-27 22:22 26.33301 52.43825 31855 ft 503 kts 115°
2026-04-27 22:23 26.30529 52.51005 31855 ft 503 kts 115°
2026-04-27 22:23 26.27787 52.58127 31854 ft 503 kts 114°
2026-04-27 22:24 26.25044 52.65273 31852 ft 503 kts 115°
2026-04-27 22:24 26.22306 52.72398 31848 ft 502 kts 115°
2026-04-27 22:25 26.19566 52.79545 31847 ft 503 kts 115°
2026-04-27 22:25 26.16826 52.86698 31848 ft 503 kts 115°
2026-04-27 22:26 26.14082 52.93844 31841 ft 502 kts 115°
2026-04-27 22:26 26.11332 53.00994 32046 ft 506 kts 115°
2026-04-27 22:26 26.09961 53.04562 32352 ft 506 kts 114°
2026-04-27 22:27 26.08609 53.08188 32614 ft 508 kts 113°
2026-04-27 22:27 26.07271 53.11835 32804 ft 511 kts 113°
2026-04-27 22:27 26.05942 53.15477 32825 ft 513 kts 113°
2026-04-27 22:28 26.03072 53.22709 32829 ft 511 kts 121°
2026-04-27 22:28 25.99469 53.29476 32828 ft 510 kts 124°
2026-04-27 22:29 25.95807 53.36192 32831 ft 509 kts 123°
2026-04-27 22:29 25.92191 53.42936 32834 ft 508 kts 122°
2026-04-27 22:30 25.88588 53.49715 32829 ft 507 kts 122°
2026-04-27 22:30 25.85020 53.56434 32825 ft 507 kts 122°
2026-04-27 22:31 25.81449 53.63141 32832 ft 506 kts 122°
2026-04-27 22:31 25.77852 53.69893 32832 ft 506 kts 122°
2026-04-27 22:32 25.74290 53.76573 32831 ft 506 kts 123°
2026-04-27 22:32 25.70688 53.83313 32827 ft 505 kts 122°
2026-04-27 22:33 25.67127 53.89965 32826 ft 504 kts 123°
2026-04-27 22:33 25.63543 53.96653 32835 ft 503 kts 122°
2026-04-27 22:34 25.59971 54.03308 32836 ft 504 kts 122°
2026-04-27 22:34 25.56396 54.09957 32831 ft 504 kts 122°
2026-04-27 22:35 25.52822 54.16602 32833 ft 503 kts 122°
2026-04-27 22:35 25.49264 54.23203 32835 ft 502 kts 122°
2026-04-27 22:36 25.45682 54.29838 32832 ft 502 kts 122°
2026-04-27 22:36 25.42113 54.36441 32834 ft 501 kts 122°
2026-04-27 22:37 25.38559 54.43007 32827 ft 501 kts 122°
2026-04-27 22:37 25.34970 54.49625 32822 ft 500 kts 122°
2026-04-27 22:38 25.31400 54.56202 32827 ft 500 kts 122°
2026-04-27 22:38 25.27819 54.62793 32824 ft 500 kts 122°
2026-04-27 22:39 25.24254 54.69342 32820 ft 499 kts 122°
2026-04-27 22:39 25.20682 54.75890 32817 ft 499 kts 122°
2026-04-27 22:40 25.17101 54.82451 32817 ft 499 kts 122°
2026-04-27 22:40 25.13529 54.88991 32817 ft 497 kts 122°
2026-04-27 22:41 25.09961 54.95511 32814 ft 498 kts 122°
2026-04-27 22:41 25.06396 55.02011 32823 ft 498 kts 122°
2026-04-27 22:42 25.02810 55.08539 32828 ft 498 kts 122°
2026-04-27 22:42 24.99222 55.15066 32833 ft 497 kts 122°
2026-04-27 22:43 24.95666 55.21531 32837 ft 496 kts 122°
2026-04-27 22:43 24.92097 55.28010 32849 ft 494 kts 122°
2026-04-27 22:44 24.88516 55.34498 32846 ft 494 kts 122°
2026-04-27 22:44 24.84965 55.40919 32850 ft 494 kts 122°
2026-04-27 22:45 24.81382 55.47393 32854 ft 494 kts 122°
2026-04-27 22:45 24.77813 55.53834 32860 ft 493 kts 122°
2026-04-27 22:46 24.74262 55.60236 32867 ft 493 kts 122°
2026-04-27 22:46 24.70693 55.66659 32874 ft 493 kts 122°
2026-04-27 22:47 24.67111 55.73098 32888 ft 491 kts 122°
2026-04-27 22:47 24.63558 55.79473 32905 ft 491 kts 122°
2026-04-27 22:48 24.60013 55.85830 32918 ft 491 kts 122°
2026-04-27 22:48 24.56434 55.92232 32931 ft 491 kts 122°
2026-04-27 22:49 24.52880 55.98587 32940 ft 491 kts 122°
2026-04-27 22:49 24.49301 56.04980 32944 ft 490 kts 122°
2026-04-27 22:50 24.45739 56.11330 32961 ft 490 kts 122°
2026-04-27 22:50 24.42167 56.17692 32974 ft 489 kts 122°
2026-04-27 22:51 24.38611 56.24016 32994 ft 489 kts 122°
2026-04-27 22:51 24.35033 56.30371 32985 ft 489 kts 122°
2026-04-27 22:52 24.31463 56.36704 32953 ft 489 kts 122°
2026-04-27 22:52 24.27911 56.42996 32920 ft 489 kts 122°
2026-04-27 22:53 24.24324 56.49346 32890 ft 489 kts 122°
2026-04-27 22:53 24.20752 56.55658 32876 ft 489 kts 122°
2026-04-27 22:54 24.17192 56.61946 32868 ft 488 kts 122°
2026-04-27 22:54 24.13616 56.68251 32858 ft 488 kts 122°
2026-04-27 22:55 24.10033 56.74558 32852 ft 487 kts 122°
2026-04-27 22:55 24.06461 56.80839 32844 ft 487 kts 122°
2026-04-27 22:56 24.02887 56.87111 32837 ft 488 kts 122°
2026-04-27 22:56 23.99301 56.93409 32628 ft 488 kts 122°
2026-04-27 22:56 23.97509 56.96556 32335 ft 486 kts 122°
2026-04-27 22:57 23.95730 56.99677 31911 ft 483 kts 122°
2026-04-27 22:57 23.93941 57.02810 31357 ft 482 kts 123°
2026-04-27 22:57 23.92179 57.05890 30736 ft 483 kts 122°
2026-04-27 22:57 23.90482 57.09091 30056 ft 485 kts 118°
2026-04-27 22:58 23.89012 57.12393 29359 ft 488 kts 114°
2026-04-27 22:58 23.87770 57.15834 28623 ft 490 kts 109°
2026-04-27 22:58 23.86709 57.19336 27865 ft 491 kts 108°
2026-04-27 22:58 23.85677 57.22902 27098 ft 492 kts 108°
2026-04-27 22:59 23.84650 57.26457 26313 ft 493 kts 108°
2026-04-27 22:59 23.83605 57.30023 25620 ft 491 kts 108°
2026-04-27 22:59 23.82574 57.33498 25104 ft 485 kts 108°
2026-04-27 22:59 23.81765 57.37044 24563 ft 479 kts 97°
2026-04-27 23:00 23.82079 57.44142 23521 ft 465 kts 77°
2026-04-27 23:00 23.82771 57.47584 23009 ft 460 kts 75°
2026-04-27 23:00 23.83476 57.50915 22498 ft 455 kts 75°
2026-04-27 23:01 23.84180 57.54295 21987 ft 450 kts 76°
2026-04-27 23:01 23.84845 57.57584 21489 ft 445 kts 76°
2026-04-27 23:01 23.85489 57.60843 20992 ft 441 kts 77°
2026-04-27 23:01 23.86127 57.64108 20495 ft 436 kts 77°
2026-04-27 23:02 23.86748 57.67307 19996 ft 432 kts 77°
2026-04-27 23:02 23.87371 57.70516 19512 ft 428 kts 77°
2026-04-27 23:02 23.87854 57.73678 19032 ft 424 kts 85°
2026-04-27 23:02 23.87907 57.76890 18568 ft 420 kts 94°
2026-04-27 23:03 23.87551 57.80005 18044 ft 415 kts 100°
2026-04-27 23:03 23.87049 57.83102 17580 ft 411 kts 101°
2026-04-27 23:03 23.86530 57.86164 17099 ft 407 kts 101°
2026-04-27 23:03 23.86024 57.89185 16616 ft 404 kts 101°
2026-04-27 23:04 23.85529 57.92187 16152 ft 400 kts 101°
2026-04-27 23:04 23.85048 57.95135 15628 ft 398 kts 101°
2026-04-27 23:04 23.84571 57.98076 15113 ft 394 kts 101°
2026-04-27 23:04 23.84098 58.01000 14681 ft 389 kts 101°
2026-04-27 23:05 23.83630 58.03904 14231 ft 386 kts 101°
2026-04-27 23:05 23.83167 58.06767 13727 ft 383 kts 101°
2026-04-27 23:05 23.82706 58.09624 13243 ft 379 kts 101°
2026-04-27 23:05 23.82254 58.12422 12743 ft 375 kts 101°
2026-04-27 23:06 23.81799 58.15223 12282 ft 372 kts 100°
2026-04-27 23:06 23.81351 58.17986 11773 ft 370 kts 100°
2026-04-27 23:06 23.80907 58.20725 11247 ft 369 kts 100°
2026-04-27 23:06 23.80459 58.23481 10835 ft 363 kts 100°
2026-04-27 23:07 23.80030 58.26127 10614 ft 352 kts 100°
2026-04-27 23:07 23.79608 58.28725 10458 ft 339 kts 100°
2026-04-27 23:07 23.79207 58.31201 10298 ft 327 kts 99°
2026-04-27 23:07 23.78815 58.33607 10141 ft 315 kts 99°
2026-04-27 23:08 23.78442 58.35897 9946 ft 306 kts 99°
2026-04-27 23:08 23.78066 58.38197 9587 ft 305 kts 99°
2026-04-27 23:08 23.77698 58.40447 9213 ft 304 kts 99°
2026-04-27 23:08 23.77327 58.42706 8854 ft 303 kts 99°
2026-04-27 23:09 23.76955 58.44976 8512 ft 302 kts 99°
2026-04-27 23:09 23.76586 58.47226 8137 ft 301 kts 99°
2026-04-27 23:09 23.76215 58.49480 7773 ft 299 kts 99°
2026-04-27 23:09 23.75852 58.51692 7434 ft 297 kts 99°
2026-04-27 23:10 23.75491 58.53888 7159 ft 293 kts 99°
2026-04-27 23:10 23.75132 58.56072 6879 ft 288 kts 99°
2026-04-27 23:10 23.74711 58.58172 6630 ft 282 kts 111°
2026-04-27 23:10 23.73574 58.59821 6568 ft 265 kts 148°
2026-04-27 23:11 23.71888 58.60436 6433 ft 258 kts 183°
2026-04-27 23:11 23.70201 58.59919 6128 ft 248 kts 217°
2026-04-27 23:11 23.68945 58.58699 5855 ft 243 kts 229°
2026-04-27 23:11 23.67752 58.57373 5553 ft 242 kts 227°
2026-04-27 23:12 23.66561 58.56109 5254 ft 242 kts 226°
2026-04-27 23:12 23.65327 58.54841 4940 ft 241 kts 226°
2026-04-27 23:12 23.64098 58.53608 4591 ft 244 kts 225°
2026-04-27 23:12 23.62961 58.52219 4097 ft 245 kts 246°
2026-04-27 23:13 23.62481 58.50467 3639 ft 246 kts 266°
2026-04-27 23:13 23.62354 58.48596 3228 ft 247 kts 270°
2026-04-27 23:13 23.62277 58.46749 2922 ft 245 kts 270°
2026-04-27 23:13 23.62160 58.44920 2615 ft 238 kts 268°
2026-04-27 23:14 23.62015 58.43136 2321 ft 235 kts 268°
2026-04-27 23:14 23.61867 58.41437 2031 ft 220 kts 268°
2026-04-27 23:14 23.61725 58.39822 1759 ft 208 kts 268°
2026-04-27 23:14 23.61598 58.38293 1535 ft 195 kts 268°
2026-04-27 23:15 23.61483 58.36881 1369 ft 178 kts 268°
2026-04-27 23:15 23.61379 58.35594 1118 ft 165 kts 267°
2026-04-27 23:15 23.61282 58.34398 876 ft 151 kts 268°
2026-04-27 23:15 23.61195 58.33307 674 ft 137 kts 264°
2026-04-27 23:16 23.61113 58.32292 516 ft 135 kts 268°
2026-04-27 23:16 23.61033 58.31260 363 ft 135 kts 265°
2026-04-27 23:16 23.60958 58.30249 206 ft 134 kts 263°
2026-04-27 23:16 23.60866 58.29243 68 ft 134 kts 263°
2026-04-27 23:17 23.60790 58.28301 39 ft 104 kts 264°
2026-04-27 23:17 23.60747 58.27781 39 ft 37 kts 264°
2026-04-27 23:17 23.60726 58.27508 40 ft 34 kts 265°
2026-04-27 23:17 23.60706 58.27262 40 ft 30 kts 265°
2026-04-27 23:18 23.60650 58.27050 40 ft 28 kts 242°
2026-04-27 23:18 23.60584 58.26942 40 ft 5 kts 232°